Probability
0 0 0 0 0 0 0 0 0 0 0 0 0 0 0 0 0 0 0 0 0 0 0 0 0 0 0 0 0 0 0 0 0 0 0 0 0 0 0 0 0 0 0
0 0 0 0 0 0 0 0 0 0 0 0 0 0 0 0 0 0 0 0 0 0 0 0 0 0 0 0 0 0 0 0 0 0 0 0 0 0 0 0 0 0 0
0 0 0 0 0 0 0 0 0 0 0 0 0 0 0 0 0 0 0 0 0 0 0 0 0 0 0 0 0 0 0 0 0 0 0 0 0 0 0 0 0 0 0
0 0 0 0 0 0 0 0 0 0 0 0 0 0 0 0 0 0 0 0 0 0 0 0 0 0 0 0 0 0 0 0 0 0 0 0 0 0 0 0 0 0 0
0 0 0 0 0 0 0 0 0 0 0 0 0 0 0 0 0 0 0 0 0 0 0 0 0 0 0 0 0 0 0 0 0 0 0 0 0 0 0 0 0 0 0
0 0 0 0 0 0 0 0 0 0 0 0 0 0 0 0 0 0 0 0 0 0 0 0 0 0 0 0 0 0 0 0 0 0 0 0 0 0 0 0 0 0 0
0 0 0 0 0 0 0 0 0 0 0 0 0 0 0 0 0 0 0 0 0 0 0 0 0 0 0 0 0 0 0 0 0 0 0 0 0 0 0 0 0 0 0
0 0 0 0 0 0 0 0 0 0 0 0 0 0 0 0 0 0 0 0 0 0 0 0 0 0 0 0 0 0 0 0 0 0 0 0 0 0 0 0 0 0 0
0 0 0 0 0 0 0 0 0 0 0 0 0 0 0 0 0 0 0 0 0 0 0 0 0 0 0 0 0 0 0 0 0 0 0 0 0 0 0 0 0 0 0
0 0 0 0 0 0 0 0 0 0 0 0 0 0 0 0 0 0 0 0 0 0 0 0 0 0 0 0 0 0 0 0 0 0 0 0 0 0 0 0 0 0 0
0 0 0 0 0 0 0 0 0 0 0 0 0 0 0 0 0 0 0 0 0 0 0 0 0 0 0 0 0 0 0 0 0 0 0 0 0 0 0 0 0 0 0
0 0 0 0 0 0 0 0 0 0 0 0 0 0 0 0 0 0 0 0 0 0 0 0 0 0 0 0 0 0 0 0 0 0 0 0 0 0 0 0 0 0 0
0 0 0 0 0 0 0 0 0 0 0 0 0 0 0 0 0 0 0 0 0 0 0 0 0 0 0 0 0 0 0 0 0 0 0 0 0 0 0 0 0 0 0
0 0 0 0 0 0 0 0 0 0 0 0 0 0 0 0 0 0 0 0 0 0 0 0 0 0 0 0 0 0 0 0 0 0 0 0 0 0 0 0 0 0 0
0 0 0 0 0 0 0 0 0 0 0 0 0 0 0 0 0 0 0 0 0 0 0 0 0 0 0 0 0 0 0 0 0 0 0 0 0 0 0 0 0 0 0
0 0 0 0 0 0 0 0 0 0 0 0 0 0 0 0 0 0 0 0 0 0 0 0 0 0 0 0 0 0 0 0 0 0 0 0 0 0 0 0 0 0 0
0 0 0 0 0 0 0 0 0 0 0 0 0 0 0 0 0 0 0 0 0 0 0 0 0 0 0 0 0 0 0 0 0 0 0 0 0 0 0 0 0 0 0
0 0 0 0 0 0 0 0 0 0 0 0 0 0 0 0 0 0 0 0 0 0 0 0 0 0 0 0 0 0 0 0 0 0 0 0 0 0 0 0 0 0 0
0 0 0 0 0 0 0 0 0 0 0 0 0 0 0 0 0 0 0 0 0 0 0 0 0 0 0 0 0 0 0 0 0 0 0 0 0 0 0 0 0 0 0
0 0 0 0 0 0 0 0 0 0 0 0 0 0 0 0 0 0 0 0 0 0 0 0 0 0 0 0 0 0 0 0 0 0 0 0 0 0 0 0 0 0 0
0 0 0 0 0 0 0 0 0 0 0 0 0 0 0 0 0 0 0 0 0 0 0 0 0 0 0 0 0 0 0 0 0 0 0 0 0 0 0 0 0 0 0
0 0 0 0 0 0 0 0 0 0 0 0 0 0 0 0 0 0 0 0 0 0 0 0 0 0 0 0 0 0 0 0 0 0 0 0 0 0 0 0 0 0 0
0 0 0 0 0 0 0 0 0 0 0 0 0 0 0 0 0 0 0 0 0 0 0 0 0 0 0 0 0 0 0 0 0 0 0 0 0 0 0 0 0 0 0
0 0 0 0 0 0 0 0 0 0 0 0 0 0 0 0 0 0 0 0 0 0 0 0 0 0 0 0 0 0 0 0 0 0 0 0 0 0 0 0 0 0 0
0 0 0 0 0 0 0 0 0 0 0 0 0 0 0 0 0 0 0 0 0 0 0 0 0 0 0 0 0 0 0 0 0 0 0 0 0 0 0 0 0 0 0
0 0 0 0 0 0 0 0 0 0 0 0 0 0 0 0 0 0 0 0 0 0 0 0 0 0 0 0 0 0 0 0 0 0 0 0 0 0 0 0 0 0 0
Height
5693 5687 5681 5675 5668 5662 5655 5649 5642 5636 5629 5623 5617 5611 5605 5599 5594 5588 5585 5580 5576 5574 5570 5566 5564 5560 5557 5554 5550 5547 5545 5541 5541 5545 5540 5536 5532 5528 5525 5522 5520 5519 5517
5679 5673 5666 5659 5652 5645 5638 5631 5624 5617 5610 5603 5597 5591 5585 5579 5574 5569 5565 5560 5556 5553 5550 5546 5544 5540 5537 5534 5530 5528 5525 5522 5521 5523 5520 5516 5513 5509 5505 5502 5500 5499 5498
5664 5657 5650 5642 5635 5627 5620 5612 5604 5597 5590 5582 5576 5570 5564 5558 5553 5548 5543 5540 5536 5533 5529 5526 5523 5519 5517 5514 5510 5508 5505 5503 5501 5501 5501 5496 5493 5489 5485 5483 5481 5479 5477
5648 5640 5632 5624 5616 5607 5599 5591 5583 5575 5568 5561 5554 5548 5542 5536 5531 5526 5522 5519 5515 5512 5509 5505 5503 5499 5497 5493 5491 5489 5486 5483 5481 5480 5479 5477 5473 5469 5465 5464 5461 5458 5457
5631 5622 5613 5604 5595 5586 5577 5569 5560 5552 5545 5538 5531 5525 5519 5514 5509 5504 5501 5498 5495 5492 5488 5485 5482 5479 5476 5473 5471 5469 5465 5463 5461 5459 5458 5456 5453 5449 5446 5442 5440 5438 5437
5611 5602 5592 5583 5573 5564 5555 5546 5538 5530 5522 5515 5508 5502 5497 5491 5486 5482 5479 5477 5474 5471 5469 5465 5462 5459 5456 5453 5451 5449 5446 5444 5442 5439 5437 5435 5433 5429 5425 5422 5420 5418 5419
5590 5580 5570 5560 5551 5542 5532 5523 5514 5507 5499 5492 5486 5480 5475 5470 5465 5461 5457 5455 5454 5451 5448 5445 5443 5440 5436 5434 5431 5428 5426 5424 5422 5420 5417 5416 5412 5408 5404 5402 5400 5399 5399
5569 5559 5548 5538 5529 5519 5510 5501 5492 5485 5477 5471 5465 5459 5454 5450 5444 5441 5438 5435 5434 5432 5429 5426 5423 5421 5417 5414 5412 5410 5408 5405 5401 5398 5398 5396 5392 5388 5384 5382 5380 5379 5379
5548 5538 5527 5516 5506 5498 5489 5480 5471 5464 5458 5451 5445 5440 5435 5431 5426 5422 5419 5417 5415 5413 5410 5407 5404 5402 5398 5394 5393 5392 5390 5386 5381 5378 5376 5375 5372 5369 5365 5362 5361 5359 5359
5528 5517 5506 5495 5485 5477 5469 5460 5452 5445 5439 5433 5428 5422 5417 5413 5408 5404 5401 5399 5397 5395 5392 5388 5385 5382 5379 5375 5373 5372 5371 5367 5362 5359 5356 5354 5352 5349 5346 5344 5342 5339 5339
5507 5497 5487 5476 5466 5458 5450 5442 5434 5428 5422 5416 5411 5406 5400 5395 5391 5388 5384 5381 5379 5377 5374 5371 5367 5363 5361 5357 5354 5353 5351 5347 5343 5341 5338 5336 5334 5331 5328 5325 5323 5320 5319
5489 5480 5470 5460 5450 5441 5433 5426 5419 5412 5406 5400 5395 5390 5385 5380 5375 5372 5368 5365 5362 5360 5357 5354 5350 5346 5343 5339 5336 5334 5331 5327 5325 5323 5321 5319 5316 5314 5310 5307 5305 5302 5300
5472 5463 5453 5444 5435 5426 5418 5411 5404 5398 5391 5385 5380 5375 5371 5366 5361 5357 5354 5350 5346 5343 5340 5336 5333 5329 5325 5322 5318 5315 5312 5309 5307 5306 5304 5302 5299 5296 5293 5290 5287 5285 5283
5456 5447 5438 5429 5421 5413 5405 5397 5390 5384 5378 5372 5366 5362 5358 5353 5348 5344 5340 5336 5332 5328 5324 5320 5316 5311 5308 5304 5301 5298 5295 5293 5291 5289 5287 5285 5282 5280 5277 5274 5271 5268 5266
5441 5432 5424 5415 5407 5400 5393 5385 5378 5372 5364 5359 5354 5349 5345 5341 5336 5331 5327 5323 5318 5314 5309 5305 5300 5295 5291 5288 5284 5281 5279 5276 5274 5273 5271 5269 5267 5264 5262 5259 5256 5253 5251
5427 5419 5410 5402 5395 5387 5381 5375 5368 5360 5354 5347 5342 5337 5332 5327 5322 5318 5313 5308 5303 5299 5294 5290 5285 5280 5276 5272 5269 5266 5263 5260 5258 5257 5255 5253 5251 5249 5247 5244 5241 5239 5236
5414 5406 5398 5390 5383 5376 5369 5363 5358 5352 5345 5338 5332 5326 5320 5315 5310 5305 5300 5295 5290 5285 5280 5276 5271 5266 5262 5258 5254 5251 5248 5246 5243 5242 5240 5238 5237 5235 5233 5230 5227 5225 5222
5402 5394 5386 5379 5372 5365 5358 5352 5346 5340 5336 5330 5323 5316 5310 5304 5298 5293 5287 5283 5278 5273 5268 5263 5258 5254 5249 5245 5241 5237 5234 5232 5230 5228 5227 5225 5223 5221 5219 5217 5214 5211 5208
5392 5384 5377 5370 5363 5356 5349 5342 5336 5330 5324 5318 5313 5306 5300 5294 5288 5282 5276 5271 5266 5262 5257 5252 5247 5242 5238 5233 5229 5226 5223 5220 5218 5216 5215 5213 5211 5209 5207 5204 5202 5199 5196
5382 5374 5367 5360 5354 5347 5340 5333 5327 5321 5314 5308 5302 5296 5290 5284 5278 5272 5266 5261 5256 5251 5246 5241 5236 5231 5227 5223 5219 5216 5213 5210 5208 5206 5204 5202 5200 5198 5195 5193 5190 5187 5184
5373 5366 5359 5352 5345 5338 5331 5325 5319 5312 5305 5299 5293 5286 5280 5274 5268 5263 5257 5252 5247 5242 5237 5231 5226 5222 5217 5213 5210 5207 5204 5202 5199 5197 5195 5192 5190 5187 5184 5182 5179 5176 5173
5364 5357 5350 5344 5337 5330 5324 5318 5311 5304 5298 5291 5285 5279 5272 5266 5260 5255 5249 5244 5238 5233 5228 5223 5217 5213 5208 5205 5201 5198 5196 5193 5190 5187 5185 5182 5179 5177 5174 5172 5169 5166 5163
5355 5349 5342 5336 5329 5323 5317 5311 5304 5297 5291 5285 5279 5273 5267 5261 5255 5249 5243 5237 5232 5226 5221 5215 5210 5205 5200 5196 5193 5190 5187 5184 5181 5178 5175 5173 5170 5168 5166 5163 5161 5158 5155
5347 5341 5335 5328 5322 5316 5310 5304 5298 5291 5285 5279 5273 5267 5261 5255 5249 5243 5237 5231 5226 5220 5214 5209 5203 5198 5194 5189 5186 5183 5179 5176 5173 5170 5168 5165 5163 5161 5158 5156 5153 5150 5147
5339 5333 5327 5321 5316 5310 5304 5298 5292 5286 5280 5274 5268 5262 5256 5250 5244 5238 5232 5226 5220 5214 5209 5203 5198 5193 5188 5183 5180 5176 5173 5170 5167 5164 5161 5158 5156 5154 5151 5148 5146 5143 5139
5332 5326 5321 5315 5309 5304 5298 5292 5287 5281 5275 5269 5263 5258 5252 5246 5239 5233 5227 5221 5215 5209 5204 5198 5193 5188 5183 5178 5175 5171 5167 5164 5161 5158 5155 5152 5149 5147 5144 5141 5138 5135 5133
Wind_Speed
49 51 53 55 57 59 60 61 62 63 64 65 65 65 66 66 67 68 68 68 68 68 69 69 68 69 68 68 68 68 67 67 64 61 63 63 64 64 65 66 65 64 64
55 57 59 61 62 64 65 66 67 67 68 68 67 67 67 67 68 68 68 68 68 68 68 68 68 69 68 68 68 67 66 66 65 62 63 64 64 65 66 66 65 65 65
61 63 65 66 68 69 69 70 70 70 70 70 70 69 68 68 68 68 68 68 67 67 67 67 67 67 66 66 66 65 65 65 65 64 64 65 65 65 66 66 65 65 66
67 69 70 72 73 73 74 74 73 73 72 72 71 70 69 69 69 69 68 67 67 66 66 65 65 65 64 64 65 65 65 65 66 65 65 65 64 65 66 65 66 66 66
72 74 75 76 77 77 76 76 75 75 74 73 71 70 69 69 68 68 68 67 66 65 64 63 62 62 63 63 63 63 64 65 65 65 65 64 64 65 65 65 65 65 64
77 78 79 79 79 78 77 76 75 74 72 71 70 69 68 68 67 67 66 65 64 63 62 61 61 61 61 62 63 63 64 64 64 64 64 64 63 64 64 65 64 64 63
81 81 81 80 79 78 76 75 73 72 70 69 68 67 66 65 65 64 63 63 61 60 59 59 59 59 60 61 62 63 63 63 63 63 63 62 62 63 64 64 64 64 62
83 82 81 80 78 76 74 72 70 69 67 66 65 64 62 61 61 60 59 58 57 56 56 57 58 59 60 61 61 61 61 61 62 62 62 61 61 62 63 63 64 63 62
82 81 80 78 75 73 70 68 67 65 64 63 61 60 59 58 58 57 56 55 55 54 55 56 57 58 59 61 60 60 60 60 61 62 62 61 60 61 61 62 62 62 61
81 79 76 73 70 68 66 64 63 61 60 59 58 57 57 56 55 54 54 53 53 53 53 54 56 56 57 58 59 59 59 59 60 60 60 60 59 59 59 60 60 61 61
78 74 70 67 65 63 62 60 58 57 56 55 54 53 53 53 52 52 52 52 52 52 52 53 54 55 56 57 58 57 57 58 58 57 56 56 56 56 57 58 59 60 60
72 68 65 63 61 60 59 57 56 55 54 53 51 50 50 50 50 49 49 49 50 50 50 51 52 53 54 55 55 55 55 55 54 54 53 53 54 54 55 56 57 58 58
67 64 61 59 58 57 56 55 53 52 52 50 48 47 46 46 46 46 46 47 48 49 49 50 51 52 52 53 53 53 53 53 52 52 51 51 52 53 54 54 55 55 55
63 60 58 57 54 53 52 52 50 49 48 47 46 44 43 42 43 44 44 45 46 47 48 48 49 50 50 50 50 50 51 51 50 49 49 49 49 50 50 51 51 52 52
59 57 56 54 52 50 49 49 47 46 46 44 43 42 42 41 42 43 43 44 45 46 46 47 47 47 48 48 47 48 48 48 48 48 47 47 48 48 48 49 49 49 48
56 54 52 50 48 47 46 44 44 44 43 43 42 43 42 42 42 42 43 43 44 44 44 43 43 44 44 44 44 44 45 46 46 46 46 46 46 46 46 46 46 46 45
54 51 49 48 47 46 44 43 40 39 40 41 42 43 42 42 42 42 42 42 41 41 41 40 40 40 40 41 41 42 42 43 43 43 43 43 43 43 43 43 43 43 43
51 49 48 47 45 43 42 41 41 40 39 39 40 41 41 41 41 41 40 40 39 39 39 38 38 38 37 38 38 38 38 38 38 39 39 39 39 39 39 40 40 40 40
48 47 45 44 43 42 41 41 41 40 40 39 38 39 40 40 39 39 38 38 37 37 37 36 36 36 36 35 35 34 34 33 34 34 34 35 35 36 36 37 37 38 38
45 44 44 43 42 41 40 40 39 39 39 39 38 38 38 37 36 36 35 35 35 35 35 35 35 34 34 33 32 30 29 29 30 30 31 32 33 34 34 35 35 35 36
43 42 42 42 41 40 39 38 38 39 38 37 37 36 35 35 33 32 32 33 33 33 33 33 33 32 31 30 29 28 28 28 29 29 30 31 32 32 32 32 33 33 33
42 41 41 40 39 38 37 37 38 37 36 35 34 33 33 32 31 31 31 31 31 31 32 32 31 30 29 28 28 28 27 27 28 29 29 30 30 29 29 29 29 28 28
41 40 39 39 38 36 35 36 36 35 34 33 32 31 31 31 30 30 30 30 30 30 30 30 29 28 27 27 26 26 26 26 26 27 26 26 25 24 24 24 25 25 25
39 38 38 37 35 34 34 34 34 33 32 32 31 30 30 30 30 30 30 30 29 30 30 29 28 27 26 25 25 25 24 24 23 22 22 21 21 22 22 23 24 25 25
37 36 35 35 33 33 32 32 32 31 31 30 30 29 29 29 30 30 30 29 29 29 29 28 28 26 25 23 22 21 21 21 21 21 21 21 21 22 22 23 23 24 23
34 34 33 32 32 31 31 31 30 30 29 29 28 28 29 30 30 30 29 29 28 28 28 27 26 24 22 20 19 19 19 19 20 20 20 20 21 21 21 22 22 22 21
Wind_Direction
303 302 301 299 298 297 296 294 293 292 290 289 288 286 285 284 283 282 280 279 278 277 277 276 276 276 276 276 277 278 278 278 278 277 277 278 279 279 278 278 278 277 277
302 301 300 299 298 297 296 295 294 292 291 289 287 286 284 283 282 281 280 279 278 277 277 276 276 275 275 276 276 277 277 277 278 278 278 278 278 278 278 278 277 277 277
302 301 300 299 298 297 296 295 293 292 291 289 287 286 284 283 281 280 279 279 278 277 276 276 275 275 275 275 275 276 276 276 276 277 277 277 277 277 277 277 277 277 277
302 301 300 300 299 298 297 295 294 293 291 289 288 286 284 283 281 280 279 278 277 277 276 275 275 274 274 274 275 275 275 275 276 277 277 277 277 277 277 276 276 276 276
302 301 301 300 300 299 297 296 295 293 291 289 287 285 284 282 281 279 279 278 277 277 276 275 274 274 274 274 275 275 275 275 276 277 277 277 276 276 276 275 275 275 275
303 302 302 301 301 300 298 297 295 293 291 289 287 285 283 282 280 280 279 278 277 277 276 275 274 273 274 274 275 275 275 275 276 277 277 277 276 275 275 274 274 274 275
304 304 303 302 301 300 299 297 295 293 291 289 287 285 284 283 282 281 280 279 278 278 276 275 274 274 274 275 276 276 276 276 276 276 277 276 275 274 274 274 274 275 276
305 305 304 303 302 301 299 297 295 292 290 289 287 286 285 284 283 282 281 281 280 279 277 275 274 275 275 276 276 277 277 277 277 277 276 276 275 275 274 274 274 275 276
306 306 305 304 302 301 299 297 295 293 292 291 290 288 287 285 284 283 282 281 280 279 278 277 277 276 276 276 276 276 277 277 277 277 277 276 275 275 274 274 274 275 276
307 307 306 305 303 301 299 298 296 295 294 293 291 290 289 287 286 284 283 282 281 281 280 279 279 278 277 277 277 277 277 277 276 277 276 276 276 275 275 275 275 275 276
309 308 307 305 303 302 301 300 299 298 296 295 294 293 292 290 288 287 285 284 283 282 281 280 279 279 278 278 278 278 278 277 277 276 276 276 276 276 275 276 276 276 277
309 308 307 306 304 303 302 301 301 300 298 297 295 294 293 292 290 289 287 286 285 283 282 281 281 280 280 280 279 279 278 277 277 276 276 276 276 275 275 276 276 277 278
310 309 308 307 306 304 304 303 302 302 301 300 298 296 294 293 292 291 290 289 288 286 285 284 283 282 282 281 279 278 277 277 277 276 275 275 275 275 276 276 277 278 279
310 310 309 307 306 305 305 304 304 304 303 302 300 298 296 295 293 292 292 291 290 289 288 287 286 284 283 282 280 278 278 278 277 276 276 275 275 276 276 277 278 279 280
311 311 310 309 307 306 306 306 306 305 305 304 302 300 299 297 295 294 293 292 291 291 290 289 288 287 285 284 282 279 278 277 277 277 276 275 276 276 277 278 279 280 281
312 312 311 310 308 308 307 307 307 307 306 305 304 303 302 300 299 297 296 296 295 294 293 292 291 290 288 286 284 282 280 278 277 277 276 276 276 277 278 278 280 281 281
314 313 312 311 310 310 309 309 308 307 307 307 306 305 304 303 302 301 300 299 298 298 297 297 295 293 291 288 286 284 282 280 278 277 276 276 277 278 278 280 281 282 283
314 313 313 314 313 312 312 311 310 309 308 307 306 305 305 305 304 303 302 301 301 300 300 299 298 296 295 293 291 288 285 282 279 278 277 277 278 279 280 281 282 283 283
314 314 314 315 315 314 313 313 312 312 311 310 308 307 307 306 305 304 303 303 303 303 302 301 300 298 297 296 293 290 287 284 281 279 278 279 280 281 282 282 283 284 285
315 315 315 316 316 315 315 314 314 314 314 313 312 310 309 308 307 306 306 306 305 305 304 303 301 299 298 297 295 293 289 286 283 281 281 282 282 283 284 284 285 286 287
316 316 316 316 317 316 316 316 317 317 317 316 316 316 315 314 313 311 310 309 309 308 308 306 304 301 300 298 296 294 291 288 286 285 284 285 285 286 285 286 287 288 288
316 317 317 317 317 317 317 318 319 320 320 320 320 320 320 320 319 318 316 315 314 312 312 310 308 305 302 300 298 296 294 291 289 288 287 287 288 287 287 287 289 290 290
316 317 317 318 318 318 318 319 321 321 322 323 323 323 323 324 324 323 322 320 319 318 317 316 315 311 308 304 301 298 296 295 294 292 291 290 289 289 289 289 291 294 293
316 316 317 319 319 319 319 321 322 323 324 324 325 325 326 326 326 326 325 324 323 323 322 321 320 317 313 310 305 302 300 298 297 295 294 293 292 291 292 294 295 296 296
316 317 318 319 320 320 321 322 323 324 325 326 326 327 329 329 329 330 329 329 327 327 326 326 324 321 318 315 311 308 305 303 300 298 297 295 294 294 295 297 297 298 297
317 318 319 320 320 321 322 324 325 326 327 328 329 330 330 331 332 333 333 332 332 332 332 332 331 330 327 325 321 317 313 310 307 304 302 300 298 298 299 300 299 299 298